Location: Hradec Kralove
(50.2170°N, 15.8330°E)
Time: 11:41:09
(UTC+02:00)

Explorer 7 - Pass Details

Date: 28 January 2023
Orbit: 478 x 657 km, 50.3° (Epoch: 26 March)

Event Time Altitude Azimuth Distance (km) Brightness Sun altitude
Rises 17:17:17 0° 274° (W) 2,862 11.8 -5.8°
Reaches altitude 10° 17:19:32 10° 274° (W) 1,984 10.9 -6.2°
Maximum altitude 17:24:08 90° 9° (N) 645 7.2 -6.9°
Drops below altitude 10° 17:28:55 10° 96° (E) 2,062 9.2 -7.6°
Enters shadow 17:29:36 - 96° (E) 2,328 9.4 -7.7°
Sets 17:31:17 0° 97° (E) 2,983 - -7.9°
